Location: B�rgermoos
(47.6500°N, 9.0667°E)
Time: 16:31:08
(UTC+00:00)

Tiros 1 - Pass Details

Date: 10 August 2021
Orbit: 630 x 663 km, 48.4° (Epoch: 20 September)

Event Time Altitude Azimuth Distance (km) Brightness Sun altitude
Rises 13:26:44 0° 213° (SSW) 2,982 11.2 49.6°
Reaches altitude 10° 13:29:21 10° 201° (SSW) 2,074 10.5 49.3°
Maximum altitude 13:33:23 27° 144° (SE) 1,254 9.0 48.8°
Drops below altitude 10° 13:37:26 10° 86° (E) 2,078 9.5 48.3°
Sets 13:40:02 0° 75° (ENE) 2,989 10.2 47.9°
